Location: Pebble Beach Sunset Acres
(33.0837°N, 96.4508°W)
Time: 22:14:51
(UTC+00:00)

DELTA 2 R/B (1) - Pass Details

Date: 03 July 2022
Orbit: 790 x 802 km, 39.6° (Epoch: 18 August)

Event Time Altitude Azimuth Distance (km) Brightness Sun altitude
Rises 04:03:52 0° 283° (WNW) 3,295 7.5 -24.0°
Reaches altitude 10° 04:06:50 10° 269° (W) 2,365 6.5 -24.4°
Enters shadow 04:10:58 23° 221° (SW) 1,656 5.1 -24.9°
